FW1837 Fairfield CT US current weather conditions

sailwx.info

Wind from 313 at 2 knots

Air temperature -6.1° C
Dewpoint -17.8° C

Last reported at 2020-Jan-21 05:02 UTC.
Time now 2020-Jan-21 06:07 UTC

Location: N 41°10' W 073°15'.
View on Google Maps.

See reports from other nearby stations

  
Tides and Currents Weather Stations Pressure Air Temp Water Temp Dewpoint Dewpoint Depression Visibility Wind Speed Wind Dir Waves Ship Positions
date/time (UTC)wind fromknots sea level pressurealtimeterstation pressurevisibilityair tempwater tempwave heightnotes
2020-Jan-21 05:02 313 2 -6.1
2020-Jan-21 04:46 298 1 -6.1
2020-Jan-21 04:31 298 0 -5.6
2020-Jan-21 04:15 298 1 -5.6
2020-Jan-21 04:00 298 1 -5.6
2020-Jan-21 03:46 331 3 -5.6
2020-Jan-21 03:31 315 3 -5.6
2020-Jan-21 03:17 315 3 -5.6
2020-Jan-21 03:01 292 5 -5.6
2020-Jan-21 02:47 339 5 -5.6
2020-Jan-21 02:45 325 4 -5.6
2020-Jan-21 02:30 342 6 -5.0
2020-Jan-21 02:15 320 3 -5.0
2020-Jan-21 02:01 333 2 -5.0
2020-Jan-21 01:49 322 5 -5.0
2020-Jan-21 01:30 342 4 -4.4
2020-Jan-21 01:15 336 3 -4.4
2020-Jan-21 01:01 324 3 -3.9
2020-Jan-21 00:45 324 4 -3.9
2020-Jan-21 00:32 315 3 -3.9
2020-Jan-21 00:15 336 1 -3.9
2020-Jan-21 00:00 343 4 -3.3
2020-Jan-20 23:45 301 5 -3.9
2020-Jan-20 23:31 309 6 -3.9
2020-Jan-20 23:16 335 6 -3.3
2020-Jan-20 23:03 338 7 -3.3
2020-Jan-20 23:00 317 7 -3.3
2020-Jan-20 22:45 329 7 -3.3
2020-Jan-20 22:30 329 6 -3.3
2020-Jan-20 22:16 049 5 -2.8
2020-Jan-20 22:01 336 5 -2.8
2020-Jan-20 21:45 331 5 -2.8
2020-Jan-20 21:30 341 6 -2.8
2020-Jan-20 21:16 339 6 -2.8
2020-Jan-20 21:01 005 9 -2.8
2020-Jan-20 20:46 355 9 -2.2
2020-Jan-20 20:33 314 9 -2.2
2020-Jan-20 20:16 316 9 -2.2
2020-Jan-20 20:01 343 10 -2.2
2020-Jan-20 19:47 331 8 -2.2
2020-Jan-20 19:32 317 9 -2.2
2020-Jan-20 19:15 311 11 -2.8
2020-Jan-20 19:00 283 11 -2.8
2020-Jan-20 18:45 327 10 -2.8
2020-Jan-20 18:33 320 10 -2.8
2020-Jan-20 18:19 333 9 -2.8
2020-Jan-20 18:00 346 9 -2.8
2020-Jan-20 17:46 334 9 -3.3
2020-Jan-20 17:31 340 10 -3.3
2020-Jan-20 17:16 325 10 -3.9
2020-Jan-20 17:02 009 10 -3.9
2020-Jan-20 16:45 329 10 -4.4
2020-Jan-20 16:30 300 9 -4.4
2020-Jan-20 16:16 329 6 -4.4
2020-Jan-20 16:01 312 10 -5.0
2020-Jan-20 15:47 317 9 -5.6
2020-Jan-20 15:30 317 11 -5.6
2020-Jan-20 15:15 339 10 -6.1
2020-Jan-20 15:00 360 10 -6.1
2020-Jan-20 14:46 336 12 -6.7
2020-Jan-20 14:31 318 11 -6.7
2020-Jan-20 14:19 329 12 -7.2
2020-Jan-20 14:00 331 11 -7.2
2020-Jan-20 13:45 336 8 -7.2
2020-Jan-20 13:30 327 7 -7.2
2020-Jan-20 13:15 315 6 -7.8
2020-Jan-20 13:03 030 8 -7.8
2020-Jan-20 12:46 298 6 -7.8
2020-Jan-20 12:30 324 6 -7.8
2020-Jan-20 12:15 329 7 -7.8
2020-Jan-20 12:00 318 7 -7.8
2020-Jan-20 11:47 338 7 -7.8
2020-Jan-20 11:32 318 7 -7.8
2020-Jan-20 11:16 346 7 -7.2
2020-Jan-20 11:00 318 6 -7.2
2020-Jan-20 10:45 325 6 -7.2
2020-Jan-20 10:31 319 6 -7.2
2020-Jan-20 10:16 313 6 -7.2
2020-Jan-20 10:02 317 6 -7.2
2020-Jan-20 09:45 325 7 -7.2
2020-Jan-20 09:30 346 5 -6.7
2020-Jan-20 09:16 319 6 -6.7
2020-Jan-20 09:02 333 7 -7.2
2020-Jan-20 08:47 327 9 -7.2
2020-Jan-20 08:30 360 8 -7.2
2020-Jan-20 08:15 315 8 -6.7
2020-Jan-20 08:01 336 9 -6.7
2020-Jan-20 07:47 021 6 -6.1
2020-Jan-20 07:33 343 4 -5.6
2020-Jan-20 07:15 317 6 -5.6
2020-Jan-20 07:00 305 6 -5.0
2020-Jan-20 06:46 327 5 -4.4
2020-Jan-20 06:31 319 4 -3.9
2020-Jan-20 06:16 324 6 -3.9
2020-Jan-20 06:02 344 6 -3.3
2020-Jan-20 05:47 334 6 -2.8
2020-Jan-20 05:30 315 6 -2.8
2020-Jan-20 05:15 355 6 -2.2
2020-Jan-20 05:00 305 6 -2.2
2020-Jan-20 04:46 328 6 -1.7
2020-Jan-20 04:32 314 6 -1.7
2020-Jan-20 04:17 305 9 -1.1
2020-Jan-20 04:00 323 9 -1.1
2020-Jan-20 03:45 323 8 -0.6
2020-Jan-20 03:31 295 9 -0.6
2020-Jan-20 03:16 300 11 -0.0
2020-Jan-20 03:02 312 9 -0.0
2020-Jan-20 02:45 300 7 -0.0
2020-Jan-20 02:30 309 7 -0.0
2020-Jan-20 02:16 313 7 -0.0
2020-Jan-20 02:01 282 7 -0.0
2020-Jan-20 01:48 313 5 0.6
2020-Jan-20 01:30 300 6 0.6
2020-Jan-20 01:15 289 7 0.6
2020-Jan-20 01:02 297 6 0.6
2020-Jan-20 00:46 297 7 0.6
2020-Jan-20 00:31 321 6 1.1
2020-Jan-20 00:15 304 6 1.1
2020-Jan-20 00:00 298 6 1.7
2020-Jan-19 23:45 302 4 1.7
2020-Jan-19 23:31 296 4 1.7
2020-Jan-19 23:16 328 6 2.2
2020-Jan-19 23:01 293 6 2.2
2020-Jan-19 22:45 288 7 2.2
2020-Jan-19 22:30 302 10 2.2
2020-Jan-19 22:16 294 6 2.8
2020-Jan-19 22:01 309 10 2.8
2020-Jan-19 21:46 301 6 3.3
2020-Jan-19 21:30 333 7 3.9
2020-Jan-19 21:15 313 9 3.9
2020-Jan-19 21:00 334 7 4.4
2020-Jan-19 20:47 325 6 4.4
2020-Jan-19 20:32 320 8 5.0
2020-Jan-19 20:15 319 8 5.0
2020-Jan-19 20:00 315 6 5.0
2020-Jan-19 19:46 330 6 5.0
2020-Jan-19 19:32 328 8 5.0
2020-Jan-19 19:17 301 7 5.6
2020-Jan-19 19:00 319 6 5.6
2020-Jan-19 18:45 299 6 5.6
2020-Jan-19 18:31 299 5 6.1
2020-Jan-19 18:16 332 5 6.1
2020-Jan-19 18:02 300 6 5.6
2020-Jan-19 17:45 309 6 5.6
2020-Jan-19 17:30 333 8 6.1
2020-Jan-19 17:15 340 6 6.1
2020-Jan-19 17:02 296 6 6.1
2020-Jan-19 16:47 284 8 5.6
2020-Jan-19 16:32 264 7 6.1
2020-Jan-19 16:15 284 7 6.1
2020-Jan-19 16:01 309 8 5.6
2020-Jan-19 15:46 276 11 5.6
2020-Jan-19 15:34 327 8 5.6
2020-Jan-19 15:17 286 4 5.6
2020-Jan-19 15:01 286 4 5.6
2020-Jan-19 14:46 299 3 5.0
2020-Jan-19 14:30 300 2 5.0
2020-Jan-19 14:16 281 3 4.4
2020-Jan-19 14:01 294 5 3.3
2020-Jan-19 13:49 292 6 2.8
2020-Jan-19 13:30 287 0 2.2
2020-Jan-19 13:15 294 2 1.7
2020-Jan-19 13:00 309 3 1.1
2020-Jan-19 12:45 299 3 1.1
2020-Jan-19 12:31 281 1 1.7
2020-Jan-19 12:18 298 2 1.7
2020-Jan-19 12:02 297 0 1.7
2020-Jan-19 11:45 297 1 1.7
2020-Jan-19 11:30 297 0 1.7
2020-Jan-19 11:16 297 2.2
2020-Jan-19 11:01 297 1 2.2
2020-Jan-19 10:45 298 3 1.7
2020-Jan-19 10:30 286 1 2.2
2020-Jan-19 10:15 272 0 2.2
2020-Jan-19 10:00 238 0 2.2
2020-Jan-19 09:46 282 1 2.2
2020-Jan-19 09:32 292 1 2.2
2020-Jan-19 09:15 290 2 2.2
2020-Jan-19 09:00 290 2 1.7
2020-Jan-19 08:46 294 2 2.2
2020-Jan-19 08:32 293 2 2.2
2020-Jan-19 08:16 286 1 2.2
2020-Jan-19 08:00 305 3 2.2
2020-Jan-19 07:45 263 2 2.2
2020-Jan-19 07:31 206 2 2.2
2020-Jan-19 07:18 254 4 2.2
2020-Jan-19 07:02 302 3 2.2
2020-Jan-19 06:45 293 2 2.2
2020-Jan-19 06:30 296 3 2.2
2020-Jan-19 06:15 281 2 2.2
2020-Jan-19 06:01 306 3 2.2